sat.trackr.live / text

‹ back to catalog

OPTUS 10

NORAD 40146 · 2014-054A

PAYLOAD ACTIVE UNKNOWN

§ Identity

Operator
Country
AUS
Launch date
2014-09-11
Launch site
FRGUI
Launch vehicle
Mass (kg)
RCS (m²)
51.58

Purposes: comms

External: N2YO · Heavens-Above · Gunter

§ Orbital elements

Epoch: 2026-09-08T18:15:58.996800Z

Period
1,436.08 min
Inclination
0.0215°
Eccentricity
0.0001857
Mean motion
1.00272954 rev/d
Perigee alt
35,778.4 km
Apogee alt
35,794.1 km
Semi-major
42,164.4 km
B*
0.0000e+0
RAAN
70.7747°
Arg perigee
100.3167°
Mean anomaly
246.7319°
Rev number
4,386

§ Raw data

OPTUS 101 40146U 14054A   26251.76109950 -.00000168  00000+0  00000+0 0  99962 40146   0.0215  70.7747 0001857 100.3167 246.7319  1.00272954 43869

JSON: /api/v1/satellites/40146 · /tle

For live sub-satellite position, see the globe view (requires WebGL).

§ Visibility from observer

Set your observer location to see the next 7 days of passes ≥ 10°. The values pass through the URL so the page stays shareable.

No JS? Fill the form by hand. The geolocation button needs JavaScript.